Date,TemperatureHighF,TemperatureAvgF,TemperatureLowF,DewpointHighF,DewpointAvgF,DewpointLowF,HumidityHigh,HumidityAvg,HumidityLow,PressureMaxIn,PressureMinIn,WindSpeedMaxMPH,WindSpeedAvgMPH,GustSpeedMaxMPH,PrecipitationSumIn
2013-1-2,55.8,55.6,55.5,55.0,54.7,54.5,97,96,96,30.00,30.00,0,0,0,0.00
2013-1-3,61.1,60.5,59.7,58.3,57.6,56.6,93,90,87,30.15,30.11,0,0,2,0.00
2013-1-4,49.8,49.8,49.7,48.4,48.4,48.3,95,95,95,30.24,30.23,0,0,0,0.00
2013-1-5,62.1,55.3,42.2,54.3,50.1,41.3,97,83,74,30.34,30.25,2,0,5,0.00
2013-1-7,51.2,51.2,51.1,50.1,49.8,49.7,96,95,95,30.19,30.18,0,0,0,0.00
2013-1-8,59.4,59.3,59.2,57.7,57.6,57.5,94,94,94,30.20,30.20,0,0,0,0.00
2013-1-9,72.5,67.9,62.3,69.2,65.5,61.1,96,92,87,30.33,30.28,2,0,8,0.01
2013-1-11,62.4,61.7,61.1,61.4,60.6,60.0,97,96,96,30.25,30.22,0,0,0,0.00
2013-1-12,78.2,71.0,60.2,69.4,65.2,59.1,96,83,65,30.21,30.12,2,1,4,0.00
2013-1-15,79.0,74.9,68.6,68.5,67.7,66.2,95,79,65,30.16,30.09,1,1,4,0.00
2013-1-16,63.2,63.1,63.0,62.0,61.9,61.8,96,96,96,30.05,30.04,0,0,0,0.00
2013-1-23,38.8,38.5,37.7,36.0,35.4,34.7,90,89,88,30.32,30.31,0,0,0,0.00
2013-1-24,42.5,42.4,42.3,41.2,41.1,41.0,95,95,95,30.26,30.24,0,0,0,0.00
2013-1-25,73.2,64.8,54.9,59.9,54.1,46.5,95,72,39,30.32,30.19,2,0,4,0.00
2013-1-26,57.9,56.5,55.5,56.1,55.2,54.1,96,95,95,30.24,30.23,0,0,2,0.00
2013-1-27,57.5,57.1,56.8,56.4,56.0,55.4,96,96,95,30.29,30.28,0,0,0,0.00
2013-1-28,73.8,64.3,55.2,65.5,60.2,54.1,97,87,73,30.37,30.30,3,1,7,0.00
2013-1-29,74.7,73.5,72.4,67.3,66.9,66.2,82,80,78,30.25,30.24,3,1,11,0.00
2013-1-31,59.2,54.9,48.2,41.7,35.3,29.3,78,49,33,30.15,30.08,2,1,5,0.08
2013-2-1,66.5,51.4,35.9,37.6,34.6,32.0,92,60,29,30.32,30.24,6,0,6,0.00
2013-2-2,62.2,52.5,37.4,45.3,40.5,34.4,90,66,45,30.35,30.18,8,1,8,0.00
2013-2-3,65.3,53.7,39.2,45.7,38.9,29.2,96,64,28,30.19,30.04,6,0,6,0.00
2013-2-4,58.4,45.6,39.3,47.6,41.9,38.1,96,88,66,30.14,30.10,1,0,3,0.00
2013-2-5,68.1,58.1,44.3,50.0,45.1,39.7,96,66,36,30.11,30.01,1,0,3,0.00
2013-2-6,68.5,61.7,56.9,58.3,55.7,53.1,90,81,66,30.16,30.05,2,0,3,0.00
2013-2-7,75.5,70.8,67.4,66.5,64.4,63.2,94,81,69,30.05,29.80,3,1,4,0.17
2013-2-8,69.4,63.5,56.6,59.8,55.6,53.5,91,76,63,30.02,29.87,2,1,3,0.00
2013-2-9,65.6,60.7,50.2,54.9,50.8,46.2,96,70,57,30.25,30.19,3,1,6,0.00
2013-2-10,72.4,66.6,58.1,60.2,56.4,52.8,84,70,59,30.31,30.20,4,1,13,0.00
2013-2-11,80.3,68.9,61.4,65.2,61.6,58.5,91,79,57,30.18,30.12,2,1,7,0.00
2013-2-12,78.4,68.4,62.6,68.0,65.1,61.4,96,90,66,30.08,29.97,2,0,7,0.00
2013-2-13,75.5,72.3,68.9,73.2,69.3,65.8,96,90,78,29.87,29.78,8,1,8,0.62
2013-2-14,57.4,53.9,51.3,53.4,50.8,48.8,95,90,81,30.09,29.93,3,0,3,0.12
2013-2-15,63.5,54.6,42.9,51.9,47.7,41.8,96,79,60,30.10,30.00,2,0,4,0.00
2013-2-16,59.7,52.3,45.2,49.2,45.8,39.9,96,80,56,29.95,29.91,2,0,3,0.00
2013-2-17,51.5,43.7,32.4,25.3,18.7,10.3,74,41,19,30.32,30.22,2,1,5,0.00
2013-2-18,59.7,42.7,28.9,39.0,32.7,27.1,95,72,43,30.42,30.35,8,1,8,0.00
2013-2-19,76.7,65.6,46.2,57.7,52.2,45.1,96,65,44,30.18,30.01,13,1,13,0.00
2013-2-20,60.0,54.5,47.6,52.9,40.4,33.3,90,60,40,30.18,30.07,10,0,10,0.00
2013-2-21,66.3,55.7,42.3,54.2,48.0,41.2,96,77,54,30.16,30.05,8,0,8,0.00
2013-2-22,79.5,71.7,59.7,68.9,65.5,58.6,96,82,65,30.09,30.00,12,1,12,0.00
2013-2-23,83.0,73.4,61.9,69.0,64.3,-99.9,96,77,56,29.96,29.83,7,-10,14,0.16
2013-2-24,70.7,63.7,57.8,64.0,59.1,48.0,97,86,52,30.00,29.85,5,0,7,0.11
2013-2-25,67.1,62.1,57.7,66.0,59.0,-99.9,97,94,89,29.95,29.81,7,-18,1,3.61
2013-2-26,76.9,69.1,60.5,71.0,64.9,54.0,97,87,49,29.81,29.67,14,1,14,0.72
2013-2-27,68.2,60.8,53.8,56.0,50.1,44.3,87,69,45,29.97,29.81,6,0,6,0.00
2013-2-28,69.9,59.9,47.0,49.1,45.1,36.0,93,61,40,29.98,29.83,10,0,10,0.00
2013-3-1,59.8,53.9,48.6,42.0,38.1,35.4,67,55,45,30.00,29.89,4,0,4,0.00
2013-3-2,57.2,45.8,38.2,40.0,34.7,30.0,92,67,37,30.02,29.90,7,0,1,0.00
2013-3-3,46.6,41.4,33.1,33.3,30.9,28.8,89,67,51,30.13,29.98,4,1,4,0.00
2013-3-4,60.1,43.9,31.0,43.0,33.1,24.0,95,71,28,30.22,30.11,3,0,3,0.00
2013-3-5,74.2,57.1,39.8,57.0,45.4,38.4,95,70,30,30.18,29.89,8,1,0,0.00
2013-3-6,64.5,54.2,45.0,60.0,37.8,28.5,92,57,32,30.13,29.85,9,2,9,0.05
2013-3-7,57.9,47.9,38.0,46.0,39.0,32.0,95,72,58,30.24,30.13,9,0,9,0.00
2013-3-8,64.5,52.5,39.8,51.3,44.9,38.8,96,78,48,30.24,30.16,11,1,11,0.00
2013-3-9,68.2,55.2,42.5,52.0,47.1,41.5,96,77,51,30.28,30.17,8,1,8,0.00
2013-3-10,72.7,63.6,49.7,61.2,55.6,48.0,96,77,57,30.22,30.13,7,1,11,0.00
2013-3-11,74.6,65.2,53.2,62.0,57.4,52.0,96,78,57,30.15,29.91,13,1,13,0.00
2013-3-12,71.2,65.8,54.7,67.5,62.1,48.0,95,88,65,30.01,29.84,7,0,7,0.07
2013-3-13,69.3,58.2,48.3,48.0,40.2,31.6,91,54,27,30.18,30.01,8,0,7,0.00
2013-3-14,55.9,49.9,40.1,40.0,34.4,28.9,94,56,44,30.31,30.16,13,1,13,0.00
2013-3-15,66.3,52.2,37.0,48.0,39.6,27.8,96,68,31,30.28,30.12,7,0,7,0.00
2013-3-16,78.4,60.5,44.1,54.7,47.6,42.7,96,67,31,30.16,29.98,6,0,6,0.00
2013-3-17,78.3,60.8,46.7,59.0,50.0,43.9,93,71,34,30.13,29.99,5,0,6,0.01
2013-3-18,79.9,68.1,59.9,65.6,61.7,58.0,96,82,54,30.06,29.86,3,0,4,0.01
2013-3-19,80.7,68.8,59.9,65.7,61.3,57.6,96,79,52,30.02,29.89,5,0,6,0.07
2013-3-20,65.1,60.4,50.9,59.0,56.0,50.0,96,86,72,30.02,29.86,5,0,6,0.14
2013-3-21,65.9,52.6,41.3,49.0,39.9,30.0,96,68,26,29.96,29.84,4,0,3,0.01
2013-3-22,64.7,53.8,43.5,52.0,43.9,38.0,90,71,45,30.06,29.93,5,0,2,0.00
2013-3-23,70.0,63.1,54.7,66.2,61.3,52.0,96,94,84,30.00,29.80,4,0,4,2.46
2013-3-24,81.7,69.9,62.9,73.0,66.9,62.0,97,91,63,29.82,29.52,7,1,7,0.51
2013-3-25,67.8,58.9,48.1,63.0,40.8,27.0,88,54,25,30.03,29.61,6,1,4,0.00
2013-3-26,55.9,46.7,40.6,35.0,29.4,25.0,80,52,35,30.25,30.03,6,0,3,0.00
2013-3-27,57.8,45.9,36.1,41.0,34.4,30.0,94,66,37,30.30,30.21,4,0,1,0.00
2013-3-28,66.4,49.8,37.0,45.0,39.9,34.0,96,73,30,30.30,30.21,4,0,8,0.00
2013-3-29,70.4,52.0,41.2,52.0,42.6,35.0,96,76,29,30.33,30.21,7,0,0,0.00
2013-3-30,76.6,57.4,43.7,56.0,47.7,42.9,96,75,31,30.26,30.10,6,0,0,0.00
2013-3-31,82.2,65.1,51.0,61.0,52.7,46.9,92,67,38,30.14,29.95,5,0,0,0.00
2013-4-1,81.9,66.1,59.1,70.0,61.5,55.0,96,86,55,30.00,29.89,5,0,1,0.43
2013-4-2,73.8,64.8,54.3,62.0,55.8,50.0,97,75,47,30.13,29.98,7,1,9,0.01
2013-4-3,76.1,63.7,54.2,65.8,59.9,53.0,97,88,60,30.10,30.03,8,1,8,0.37
2013-4-4,76.3,68.7,64.8,72.0,66.0,64.0,97,92,75,30.07,29.86,5,0,6,0.75
2013-4-5,65.9,60.2,54.7,65.0,58.7,53.0,97,95,92,30.03,29.81,5,0,8,0.21
2013-4-6,67.6,59.5,52.6,59.0,55.3,51.0,96,86,71,30.18,30.02,6,1,1,0.00
2013-4-7,75.1,64.4,58.3,64.0,59.4,57.0,97,85,61,30.20,30.09,5,0,0,0.00
2013-4-8,77.8,64.6,55.4,66.0,60.2,54.6,97,87,65,30.18,30.09,7,0,0,0.00
2013-4-9,78.3,67.6,59.6,69.0,63.2,58.8,97,87,67,30.21,30.09,8,1,0,0.00
2013-4-10,79.7,69.6,59.9,70.0,65.3,59.0,97,86,70,30.16,30.01,5,0,0,0.00
2013-4-11,80.2,73.1,69.4,73.0,69.8,68.0,97,90,75,30.01,29.82,6,1,1,0.02
2013-4-12,85.1,75.6,69.5,75.0,70.1,66.0,97,84,60,29.88,29.76,7,1,5,0.01
2013-4-13,74.9,68.5,59.9,68.0,57.0,46.0,93,69,38,30.02,29.87,5,0,0,0.00
2013-4-14,75.4,64.4,57.1,67.0,62.0,56.0,98,92,70,30.02,29.89,5,0,0,0.15
2013-4-15,83.1,69.1,62.0,71.0,65.5,62.0,98,89,55,30.12,29.81,7,0,0,0.01
2013-4-16,77.9,69.6,63.7,70.0,66.8,63.0,98,91,74,30.20,30.10,6,1,3,0.00
2013-4-17,75.7,69.6,64.8,71.0,67.1,64.0,98,92,81,30.18,30.10,6,0,0,0.00
2013-4-18,80.9,71.6,63.5,72.0,67.8,63.0,98,88,67,30.10,29.98,8,0,0,0.00
2013-4-19,86.6,76.9,71.2,74.0,71.5,69.0,97,85,59,30.01,29.87,5,1,6,0.16
2013-4-20,71.7,56.0,51.5,70.0,54.3,49.8,97,94,82,30.20,29.98,3,0,3,0.36
2013-4-21,67.5,64.3,59.5,65.0,59.9,55.0,96,86,78,30.20,30.09,9,1,9,0.07
2013-4-22,66.3,63.7,61.3,65.0,61.6,58.0,97,93,83,30.14,30.05,13,1,14,0.05
2013-4-23,69.5,63.6,55.4,61.0,58.1,54.0,96,82,69,30.17,30.06,5,0,9,0.00
2013-4-24,78.6,65.0,52.9,68.0,59.7,52.0,98,84,60,30.16,30.10,5,0,0,0.00
2013-4-25,83.1,69.8,59.0,69.0,64.4,59.0,98,84,56,30.21,30.10,4,0,0,0.00
2013-4-26,77.7,68.4,61.7,70.0,64.3,60.5,97,87,70,30.30,30.16,8,1,0,0.00
2013-4-27,79.1,68.8,62.0,68.0,63.9,61.0,98,86,55,30.27,30.16,6,0,6,0.00
2013-4-28,78.6,71.9,65.5,68.0,66.0,64.0,97,82,63,30.17,30.01,8,1,0,0.00
2013-4-29,82.0,70.5,64.6,70.0,66.1,63.8,97,87,58,30.03,29.92,2,0,0,0.91
2013-4-30,80.8,68.1,62.9,72.0,65.7,62.0,98,92,68,30.04,29.94,7,0,0,0.01
2013-5-1,75.7,69.1,63.7,71.0,66.8,63.0,98,92,83,30.07,29.98,7,1,10,0.00
2013-5-2,69.7,68.4,66.7,69.1,67.6,65.8,98,97,92,30.03,29.91,10,1,10,6.45
2013-5-3,70.1,67.4,65.7,67.0,65.7,64.0,98,94,80,29.92,29.83,16,2,16,2.57
2013-5-4,70.2,68.4,66.1,70.0,66.5,62.0,98,93,79,29.84,29.70,15,2,15,0.71
2013-5-5,77.1,67.4,60.9,70.0,60.6,52.0,98,81,44,29.89,29.72,2,0,2,0.48
2013-5-6,73.4,64.0,55.6,58.0,53.3,48.0,96,71,42,29.98,29.86,4,0,0,0.00
2013-5-7,76.9,65.0,54.3,62.0,57.4,53.0,96,78,58,30.02,29.90,5,0,0,0.00
2013-5-8,79.5,68.1,57.2,66.0,61.1,56.0,98,80,50,30.10,30.00,2,0,0,0.00
2013-5-9,81.7,70.5,60.7,70.0,63.5,60.0,98,80,52,30.13,30.07,6,0,0,0.00
2013-5-10,83.6,73.0,60.8,71.0,66.3,60.0,98,81,52,30.13,30.00,7,0,0,0.00
2013-5-11,87.8,74.4,67.7,73.0,69.1,66.0,97,85,57,30.05,29.91,2,0,0,0.01
2013-5-12,84.8,73.9,66.6,71.0,67.0,64.0,98,81,55,30.02,29.92,4,0,2,0.00
2013-5-13,78.4,68.2,58.2,64.0,54.5,43.0,94,65,28,30.14,29.99,4,0,1,0.00
2013-5-14,76.3,62.5,51.2,58.0,52.5,48.0,96,74,37,30.24,30.15,5,0,0,0.00
2013-5-15,82.0,67.7,55.1,66.0,57.3,51.0,98,74,37,30.23,30.08,7,0,0,0.00
2013-5-16,83.3,70.8,61.1,69.0,64.5,59.0,96,81,56,30.13,30.04,6,0,0,0.00
2013-5-17,83.7,72.3,62.4,70.0,66.1,61.0,98,82,54,30.12,30.04,7,0,5,0.00
2013-5-18,82.9,74.4,66.1,73.0,69.9,65.0,98,87,64,30.14,30.03,12,1,0,0.51
2013-5-19,82.7,74.2,68.4,74.0,70.7,67.9,98,89,73,30.10,30.01,6,1,4,0.02
2013-5-20,80.1,73.4,69.1,75.0,71.4,68.5,98,94,81,30.10,30.01,6,0,1,0.89
2013-5-21,82.0,74.5,68.9,75.0,71.1,68.0,99,90,74,30.06,29.96,8,0,0,0.00
2013-5-22,81.0,73.1,67.4,75.0,70.8,67.0,99,92,74,30.01,29.92,7,0,1,0.69
2013-5-23,87.3,75.7,68.9,74.0,70.7,68.0,99,86,60,29.98,29.90,4,0,0,0.00
2013-5-24,89.3,77.4,68.9,72.0,67.0,57.0,98,74,37,30.10,29.94,4,0,0,0.00
2013-5-25,80.1,72.1,61.7,67.0,59.9,54.0,97,68,42,30.25,30.10,7,1,5,0.00
2013-5-26,81.6,67.4,58.3,67.9,59.3,52.0,98,79,39,30.24,30.15,4,0,2,0.00
2013-5-27,81.5,72.9,59.3,70.1,64.6,58.4,98,76,61,30.22,30.14,4,0,6,0.00
2013-5-28,81.5,75.0,69.8,71.0,67.0,64.4,88,76,65,30.19,30.13,7,1,4,0.00
2013-5-29,83.2,78.2,74.0,76.5,72.9,69.0,93,84,74,30.18,30.10,7,1,6,0.07
2013-5-30,83.8,78.4,73.4,76.2,73.7,72.0,97,86,74,30.18,30.10,7,1,9,0.14
2013-5-31,83.8,76.8,72.7,75.0,72.5,71.0,97,87,72,30.16,30.09,7,1,4,0.01
2013-6-1,83.8,78.4,75.4,75.0,72.8,71.2,90,83,71,30.11,30.03,10,1,4,0.00
2013-6-2,83.8,78.2,73.8,77.0,74.8,72.0,97,90,78,30.06,29.90,6,1,5,0.00
2013-6-3,91.4,78.9,72.2,79.5,74.8,71.0,98,88,60,29.96,29.86,4,0,4,1.47
2013-6-4,85.2,74.7,71.7,78.0,73.6,71.0,99,96,76,30.02,29.93,1,0,1,0.17
2013-6-5,79.8,73.8,72.0,78.0,73.0,71.0,98,97,90,30.03,29.94,1,0,1,0.46
2013-6-6,77.2,74.3,72.0,76.0,73.5,71.0,99,97,88,29.95,29.58,9,1,7,1.54
2013-6-7,88.7,77.8,71.5,78.0,72.9,70.0,98,85,67,29.92,29.60,5,1,0,0.07
2013-6-8,90.6,78.7,72.4,79.0,74.4,71.0,98,87,60,30.07,29.92,4,0,0,0.00
2013-6-9,84.6,77.9,71.9,77.0,74.4,71.0,98,89,74,30.12,30.04,6,0,0,0.02
2013-6-10,87.8,79.6,74.5,78.0,75.4,74.0,98,87,66,30.10,30.00,5,0,0,0.00
2013-6-11,92.0,79.9,73.0,79.0,75.2,72.0,98,86,58,30.08,29.98,4,0,0,0.13
2013-6-12,94.3,81.5,71.9,81.0,75.3,71.0,99,83,56,30.06,29.95,1,0,0,0.00
2013-6-15,84.8,80.1,77.1,73.0,70.6,69.0,81,73,64,30.09,29.99,7,1,6,0.00
2013-6-16,84.8,79.2,72.9,75.0,72.1,69.9,93,79,67,30.13,30.05,9,1,9,0.00
2013-6-17,88.2,80.4,75.9,80.0,76.5,74.0,97,88,74,30.08,29.96,3,0,0,0.10
2013-6-18,91.4,79.0,71.9,79.0,74.2,71.0,99,87,59,30.03,29.90,4,0,1,0.00
2013-6-19,92.8,81.7,73.2,79.1,75.0,71.0,98,82,52,30.02,29.92,3,0,4,0.00
2013-6-20,85.9,76.6,72.2,79.0,74.4,71.0,98,93,73,30.09,29.98,5,0,3,0.45
2013-6-21,84.8,78.0,72.8,78.0,74.3,72.0,99,89,74,30.13,30.05,4,0,4,0.00
2013-6-22,84.6,77.6,73.2,79.3,74.8,72.0,98,91,74,30.13,30.07,4,0,4,0.12
2013-6-23,87.3,78.4,71.5,78.0,74.6,71.0,99,89,69,30.16,30.08,6,0,0,0.00
2013-6-24,86.9,79.8,73.1,79.0,75.3,72.0,99,87,69,30.20,30.10,7,0,6,0.00
2013-6-25,88.3,78.8,73.0,79.0,74.8,72.0,98,88,66,30.17,30.05,4,0,0,0.00
2013-6-26,91.0,78.2,72.8,80.0,74.6,71.0,99,89,59,30.09,30.00,5,0,0,0.00
2013-6-27,92.3,77.2,71.2,80.0,74.2,70.0,98,91,62,30.02,29.89,4,0,8,0.75
2013-6-28,91.5,79.2,75.1,80.0,75.7,73.0,99,90,60,29.93,29.78,4,0,3,0.00
2013-6-29,87.3,79.9,75.6,78.3,75.4,73.0,96,87,68,29.82,29.74,5,0,3,0.00
2013-6-30,88.2,76.8,73.8,80.0,74.5,72.0,97,93,69,29.86,29.77,3,0,2,0.73
2013-7-1,83.7,75.9,71.5,78.3,73.7,70.8,99,93,80,30.02,29.83,5,0,4,2.18
2013-7-2,85.1,75.8,72.1,78.8,74.2,71.9,99,95,80,30.11,29.99,4,0,7,0.42
2013-7-3,85.9,76.6,71.8,79.0,74.6,71.7,99,94,77,30.14,30.07,5,0,1,0.00
2013-7-4,85.1,78.7,74.3,78.0,75.0,72.0,96,88,78,30.17,30.10,9,1,7,0.00
2013-7-5,86.1,77.7,72.4,79.0,74.8,71.0,99,91,76,30.18,30.11,8,1,1,0.00
2013-7-6,86.2,78.5,74.3,79.0,75.4,73.6,98,91,75,30.15,30.08,9,1,3,0.00
2013-7-7,86.1,79.1,73.4,78.1,75.5,72.7,99,89,74,30.16,30.09,7,0,4,0.00
2013-7-8,86.8,77.8,73.3,79.0,75.1,72.7,99,92,72,30.19,30.11,4,0,1,0.00
2013-7-9,86.1,77.9,73.2,79.0,74.5,72.6,99,90,68,30.18,30.09,6,0,0,0.00
2013-7-10,87.1,78.8,70.9,78.5,74.2,70.0,99,87,68,30.10,29.97,6,0,5,0.00
2013-7-11,89.4,80.7,73.6,77.7,74.9,72.0,97,83,61,30.02,29.89,4,1,5,0.00
2013-7-12,88.6,75.9,72.5,80.0,73.8,71.0,98,93,66,29.93,29.87,4,0,0,0.33
2013-7-13,85.9,77.1,71.7,79.6,74.7,71.0,99,93,76,30.00,29.90,3,0,3,0.24
2013-7-14,84.1,75.6,72.0,76.5,73.6,71.0,99,94,72,30.13,29.98,5,0,4,0.01
2013-7-15,86.3,77.4,72.7,79.0,75.1,72.0,99,93,78,30.17,30.10,7,0,4,0.10
2013-7-16,86.6,80.1,76.4,80.0,76.6,75.0,97,89,75,30.21,30.13,7,1,5,0.00
2013-7-17,86.6,81.1,75.3,79.3,76.6,74.0,98,87,73,30.21,30.10,9,1,5,0.00
2013-7-18,87.1,80.0,72.2,78.2,75.0,71.6,99,85,67,30.14,30.05,4,0,4,0.00
2013-7-19,88.7,79.2,72.9,78.1,74.2,71.0,98,85,66,30.13,30.03,4,0,3,0.00
2013-7-20,90.3,76.2,72.3,79.0,73.4,70.8,98,91,67,30.10,30.01,4,0,2,0.30
2013-7-21,91.2,78.7,72.0,80.4,75.3,71.0,99,90,61,30.10,30.01,2,0,3,0.14
2013-7-22,92.4,79.2,73.5,80.3,75.7,72.0,99,90,62,30.12,30.01,5,0,5,0.70
2013-7-23,89.6,79.3,73.0,81.4,75.9,72.0,99,90,70,30.03,29.92,4,0,3,0.04
2013-7-24,85.7,77.8,73.4,78.4,74.7,71.9,98,91,76,29.92,29.80,4,0,3,0.13
2013-7-25,89.6,80.0,72.5,79.8,75.2,71.7,98,86,64,29.94,29.82,1,0,3,0.00
2013-7-26,88.1,80.9,73.7,80.0,77.0,73.0,99,88,73,30.01,29.92,4,0,0,0.00
2013-7-27,88.9,80.0,73.9,80.0,76.3,72.0,99,89,69,30.00,29.87,4,0,2,0.00
2013-7-28,87.3,79.3,73.3,80.3,76.3,72.0,99,91,77,30.04,29.91,2,0,4,0.03
2013-7-29,88.7,82.1,71.5,80.2,76.2,71.0,99,83,67,30.14,30.02,5,0,6,0.00
2013-7-30,90.7,83.1,75.0,81.1,77.5,74.0,98,84,70,30.17,30.08,5,0,4,0.00
2013-7-31,88.2,78.6,72.8,80.4,76.1,72.0,99,93,74,30.12,30.03,2,0,2,0.56
2013-8-1,89.3,75.2,71.2,81.0,73.8,71.0,99,96,73,30.04,29.95,4,0,1,0.22
2013-8-2,90.7,80.2,71.3,82.2,75.6,71.0,99,87,64,30.03,29.94,6,0,5,0.00
2013-8-3,91.5,81.1,73.7,81.3,76.9,73.0,99,88,66,30.04,29.97,2,0,3,0.00
2013-8-4,93.7,82.1,76.3,81.2,77.6,75.0,98,87,58,30.04,29.92,2,0,1,0.00
2013-8-5,90.2,81.1,77.6,81.0,78.2,76.9,99,91,71,29.98,29.90,4,0,0,0.00
2013-8-6,88.3,82.8,77.5,80.6,78.7,76.9,98,88,74,30.00,29.90,6,1,5,0.00
2013-8-7,88.1,82.7,79.0,80.0,77.7,76.0,94,85,72,30.01,29.94,13,1,4,0.00
2013-8-8,88.6,81.9,76.2,80.5,77.7,75.6,99,88,68,30.06,29.96,6,1,5,0.00
2013-8-9,90.0,83.0,77.5,81.0,77.6,76.0,97,84,68,30.09,29.98,5,0,5,0.00
2013-8-10,90.0,82.2,74.2,80.1,77.0,73.6,99,85,67,30.14,30.06,6,0,5,0.00
2013-8-11,90.2,80.8,75.4,81.0,77.1,74.9,98,89,61,30.16,30.07,4,0,1,0.00
2013-8-12,92.6,83.9,75.6,81.6,77.5,74.0,98,82,64,30.12,29.98,5,0,4,0.00
2013-8-13,93.5,81.1,75.3,82.0,76.5,73.9,97,87,59,30.03,29.89,2,0,2,0.00
2013-8-14,94.2,82.4,74.6,81.0,76.7,70.0,98,84,57,29.98,29.86,6,0,3,0.00
2013-8-15,90.6,80.2,73.7,79.0,75.5,72.0,98,86,62,30.03,29.91,6,0,0,0.31
2013-8-16,87.7,76.3,72.4,80.0,74.4,71.9,99,94,69,30.06,29.95,2,0,0,1.04
2013-8-17,83.8,77.7,73.0,79.0,76.3,71.7,99,96,79,30.10,30.00,4,0,3,0.54
2013-8-18,88.7,81.4,75.3,82.1,78.1,75.0,99,90,73,30.13,30.05,5,0,5,0.01
2013-8-19,89.2,81.6,76.4,83.2,78.2,75.0,99,90,71,30.10,29.98,5,0,6,0.17
2013-8-20,89.1,81.1,75.2,80.6,77.4,74.9,99,89,71,30.12,30.01,7,1,4,0.00
2013-8-21,88.4,81.0,76.9,80.3,77.8,74.3,98,90,73,30.17,30.06,6,0,5,0.05
2013-8-22,83.9,76.6,72.7,81.0,75.4,71.0,99,96,83,30.17,30.02,4,0,8,2.02
2013-8-23,85.3,77.3,74.5,81.0,76.2,74.0,99,97,81,30.05,29.99,3,0,0,0.29
2013-8-24,83.1,78.0,74.5,79.2,76.3,74.0,100,95,85,30.13,30.01,4,0,4,0.01
2013-8-25,84.5,77.8,73.9,78.1,75.2,73.0,99,92,80,30.19,30.11,9,1,5,0.03
2013-8-26,85.8,79.9,76.9,78.0,75.3,73.0,93,86,72,30.18,30.07,6,1,4,0.00
2013-8-27,86.6,79.4,72.6,76.0,73.2,71.0,97,82,65,30.10,30.01,5,0,0,0.00
2013-8-28,87.3,78.0,69.5,76.2,71.6,68.9,99,82,58,30.07,29.97,4,0,4,0.00
2013-8-29,91.7,80.7,70.7,78.6,73.1,69.0,98,80,49,30.02,29.89,2,0,2,0.00
2013-8-30,94.3,82.5,74.5,82.2,76.3,72.0,97,83,53,29.97,29.84,3,0,2,0.00
2013-8-31,90.5,79.8,73.2,81.0,75.8,73.0,98,88,67,29.95,29.86,4,0,0,0.00
2013-9-1,92.4,78.0,72.8,79.0,74.4,72.0,99,90,57,29.97,29.86,5,0,0,0.41
2013-9-2,92.8,79.5,72.0,80.2,75.4,71.7,99,88,58,29.99,29.87,4,0,2,0.07
2013-9-3,92.0,78.4,73.8,81.0,75.6,73.0,99,92,66,29.98,29.88,1,0,0,0.01
2013-9-4,92.0,81.2,74.1,81.1,76.2,72.0,98,86,60,30.07,29.96,6,0,3,0.00
2013-9-5,91.5,81.0,73.7,80.0,76.5,73.0,99,87,67,30.09,29.98,4,0,0,0.00
2013-9-6,88.9,77.1,72.8,80.0,74.2,72.0,98,91,69,30.05,29.98,5,0,1,0.00
2013-9-7,87.4,79.3,71.1,77.1,73.4,70.5,99,83,66,30.04,29.95,7,1,7,0.00
2013-9-8,87.2,78.0,69.4,75.0,71.3,69.0,99,81,60,29.98,29.91,7,1,0,0.00
2013-9-9,87.0,75.8,68.8,77.7,71.1,68.0,99,86,64,30.06,29.96,7,0,3,0.00
2013-9-10,88.2,80.6,73.5,75.0,72.6,70.6,94,77,62,30.14,30.03,8,1,6,0.00
2013-9-11,87.1,77.4,72.3,78.0,73.9,70.0,97,89,66,30.12,30.03,5,0,0,0.47
2013-9-12,85.7,76.4,72.0,81.0,74.0,71.0,99,93,71,30.05,29.90,6,0,2,0.13
2013-9-13,93.7,80.6,70.9,79.7,73.5,69.4,99,81,47,29.91,29.77,3,0,2,0.00
2013-9-14,91.2,78.4,72.1,79.0,74.5,71.0,98,88,65,29.99,29.81,3,0,1,0.00
2013-9-15,88.4,78.3,72.7,81.0,74.9,72.0,99,90,70,30.08,29.97,7,0,1,0.02
2013-9-16,88.4,80.7,73.3,79.0,75.8,72.0,98,86,66,30.09,30.00,4,0,0,0.00
2013-9-17,87.3,78.4,72.8,79.4,75.0,72.0,99,90,74,30.10,30.00,10,1,2,0.02
2013-9-18,80.3,76.1,72.9,76.0,73.2,71.0,98,91,79,30.10,30.02,9,1,2,0.01
2013-9-19,84.6,76.5,71.5,77.0,72.3,70.0,98,87,73,30.08,30.01,7,0,2,0.42
2013-9-20,84.4,75.9,68.7,75.0,70.8,68.0,99,85,66,30.04,29.92,6,0,0,0.00
2013-9-21,86.9,76.7,67.6,77.0,71.6,67.0,99,85,65,29.95,29.75,6,0,0,0.00
2013-9-22,81.0,76.2,72.1,77.6,73.6,71.0,99,92,85,29.84,29.73,4,0,2,0.53
2013-9-23,79.9,74.8,71.9,78.0,73.9,71.7,99,97,89,29.96,29.83,0,0,0,0.05
2013-9-24,80.3,74.6,72.9,77.0,73.8,72.0,99,98,88,29.95,29.81,0,0,0,0.67
2013-9-25,82.4,77.2,73.7,78.1,75.3,73.0,100,94,82,29.81,29.73,4,0,2,0.00
2013-9-26,77.7,75.1,73.1,77.1,73.7,71.5,100,95,85,29.84,29.73,1,0,7,0.04
2013-9-27,74.3,72.8,71.2,70.3,69.7,68.9,96,90,84,29.90,29.87,1,0,2,0.00
2013-9-28,72.6,72.3,72.2,71.4,71.2,71.0,97,96,96,29.99,29.98,1,0,2,0.00
2013-9-29,74.6,74.2,73.8,70.0,69.9,69.0,88,86,84,29.99,29.98,2,0,0,0.72
2013-9-30,80.7,75.6,71.0,72.1,69.1,65.5,95,81,66,30.04,29.93,7,1,6,0.00
2013-10-1,79.5,72.9,67.9,71.0,67.3,66.0,96,83,67,30.10,30.01,5,0,0,0.00
2013-10-2,82.0,71.4,63.2,71.0,67.3,63.0,99,88,69,30.10,30.04,5,0,0,0.00
2013-10-3,83.5,74.6,68.2,76.5,72.0,67.7,99,92,77,30.10,30.02,5,0,7,0.00
2013-10-4,85.9,76.6,69.7,77.0,73.6,69.0,99,91,71,30.10,30.03,7,0,0,0.00
2013-10-5,83.7,76.4,70.1,77.0,73.6,70.0,99,91,79,30.07,30.00,8,1,0,0.00
2013-10-6,85.2,77.0,73.1,78.8,75.1,72.6,99,94,77,30.01,29.87,6,0,5,0.45
2013-10-7,88.4,77.9,72.0,78.7,74.7,72.0,100,91,66,29.87,29.75,4,0,3,1.78
2013-10-8,79.3,73.3,70.2,76.0,72.4,68.0,100,97,88,29.99,29.77,4,0,4,0.62
2013-10-9,70.2,64.1,62.1,68.0,63.5,61.8,99,98,91,30.09,29.98,4,0,2,0.08
2013-10-10,79.8,68.1,62.3,72.0,65.3,62.0,100,91,66,30.07,29.97,5,0,0,0.00
2013-10-11,83.4,71.8,61.9,72.1,65.7,61.7,100,83,53,30.06,29.93,1,0,1,0.00
2013-10-12,84.4,69.8,62.6,72.0,64.9,62.0,99,86,48,30.04,29.96,2,0,0,0.00
2013-10-13,85.3,70.5,62.0,71.0,65.6,61.8,100,86,47,30.09,30.00,5,0,0,0.01
2013-10-14,75.5,70.5,66.5,72.4,68.7,65.0,98,94,85,30.07,29.99,2,0,6,0.34
2013-10-15,74.2,72.0,68.7,72.2,70.7,68.0,100,96,91,30.00,29.93,8,1,9,0.73
2013-10-16,80.9,74.0,68.4,74.4,70.6,67.0,97,89,76,29.99,29.92,6,0,4,0.00
2013-10-17,84.0,71.4,66.3,76.2,69.4,66.0,100,94,73,29.99,29.89,4,0,0,0.00
2013-10-18,87.5,75.6,68.3,77.0,72.2,68.0,100,90,63,29.99,29.89,4,0,0,0.00
2013-10-19,88.2,76.6,71.3,78.0,74.1,71.0,99,92,65,29.95,29.86,4,0,1,0.12
2013-10-20,77.1,71.6,68.0,73.0,68.5,66.0,99,90,72,30.00,29.88,5,0,1,0.00
2013-10-21,81.3,74.3,68.3,76.1,72.6,67.8,99,94,81,30.03,29.95,5,0,4,0.00
2013-10-22,78.1,74.9,71.9,76.3,74.1,71.0,100,97,90,29.97,29.81,2,0,3,2.46
2013-10-23,75.1,65.8,54.7,72.0,62.7,53.0,100,91,56,30.02,29.80,1,0,1,0.02
2013-10-24,70.7,60.4,54.5,60.4,53.2,47.0,98,78,61,30.18,30.02,4,0,5,0.00
2013-10-25,72.9,59.2,52.3,60.0,54.6,52.0,100,86,58,30.26,30.16,4,0,2,0.01
2013-10-26,72.5,60.0,52.4,61.0,54.3,49.9,97,82,62,30.25,30.12,2,0,2,0.00
2013-10-27,72.1,58.3,49.5,57.0,52.6,49.0,99,84,45,30.15,30.09,2,0,0,0.00
2013-10-28,76.3,62.4,52.7,66.1,58.8,52.0,100,89,67,30.23,30.11,4,0,3,0.00
2013-10-29,76.7,66.7,58.1,68.4,63.1,58.0,100,89,73,30.29,30.18,8,1,10,0.00
2013-10-30,78.6,69.3,62.8,71.0,65.7,62.0,99,89,73,30.27,30.16,8,0,0,0.00
2013-10-31,82.1,72.5,65.1,73.0,69.0,65.0,99,89,66,30.15,29.99,7,0,0,0.00
2013-11-1,82.4,74.2,69.4,74.0,70.5,68.0,97,88,67,30.00,29.81,5,0,1,0.00
2013-11-2,75.4,67.8,57.9,72.3,66.8,58.0,99,97,90,29.96,29.77,2,0,3,0.03
2013-11-3,70.3,60.8,52.1,61.0,53.9,49.0,99,80,50,30.18,29.95,11,0,0,0.00
2013-11-4,77.5,68.9,65.6,66.1,59.7,54.0,89,73,63,30.24,30.16,11,1,14,1.62
2013-11-5,71.4,69.4,67.1,69.0,67.1,65.0,98,92,86,30.22,30.18,9,1,11,0.02
2013-11-6,77.0,71.0,66.1,72.0,68.4,65.0,99,92,78,30.18,30.07,4,0,4,0.01
2013-11-7,77.6,70.7,65.5,70.2,67.9,64.0,98,91,76,30.07,29.97,1,0,3,0.00
2013-11-8,68.3,62.2,53.4,67.0,55.6,48.0,95,79,69,30.20,30.01,5,1,7,0.00
2013-11-9,75.3,67.2,64.5,65.0,61.1,57.0,96,81,62,30.23,30.15,9,0,7,0.00
2013-11-10,74.8,66.7,58.7,68.1,64.1,58.0,99,92,70,30.23,30.13,7,0,4,0.00
2013-11-11,75.4,65.0,57.4,66.0,61.8,57.0,99,90,65,30.20,30.11,4,0,0,0.00
2013-11-12,76.9,66.5,59.2,67.0,63.2,53.0,97,89,71,30.13,30.02,3,0,0,0.00
2013-11-13,61.3,53.7,51.1,52.0,46.6,43.0,87,77,69,30.41,30.13,11,2,12,0.00
2013-11-14,69.5,60.3,48.6,61.1,55.3,45.9,97,84,69,30.37,30.22,6,1,8,0.00
2013-11-15,67.6,61.4,55.5,67.0,60.7,55.0,99,98,92,30.23,30.07,1,0,0,0.09
2013-11-16,75.5,67.5,62.2,69.8,66.0,61.9,100,95,80,30.19,30.09,2,0,7,0.00
2013-11-17,75.2,70.2,67.1,72.3,69.3,67.0,99,97,90,30.11,30.00,2,0,2,0.25
2013-11-18,79.5,72.3,67.3,75.8,71.2,67.0,100,96,85,30.02,29.89,2,0,1,0.36
2013-11-19,71.0,63.3,55.2,71.0,59.1,51.2,99,86,75,30.03,29.90,7,0,5,0.00
2013-11-20,69.9,67.0,64.2,67.5,64.9,61.0,99,93,85,30.18,30.01,6,0,7,0.20
2013-11-21,75.9,68.8,65.4,70.5,67.0,65.0,99,94,81,30.26,30.16,5,0,4,0.00
2013-11-22,75.7,68.7,61.7,70.5,66.4,61.0,100,93,77,30.26,30.13,5,0,4,0.01
2013-11-23,78.6,66.9,58.9,71.0,64.5,58.6,100,93,74,30.14,30.01,4,0,3,0.00
2013-11-24,66.2,58.9,54.2,63.0,52.3,45.0,92,79,67,30.34,30.06,13,1,13,0.00
2013-11-25,71.8,64.9,56.7,62.0,57.1,49.0,85,76,56,30.33,30.11,7,1,9,0.00
2013-11-26,74.4,69.4,66.8,72.1,67.7,62.0,99,94,82,30.10,29.69,6,1,9,0.96
2013-11-27,71.4,57.8,40.7,71.0,54.4,35.0,99,88,76,30.22,29.61,6,1,7,0.23
2013-11-28,57.2,44.6,35.3,48.0,39.4,31.5,94,82,65,30.41,30.22,5,0,4,0.00
2013-11-29,62.6,54.0,44.1,56.4,50.7,43.0,100,89,77,30.44,30.36,6,1,10,0.00
2013-11-30,61.4,59.1,56.3,60.0,57.6,54.0,97,95,90,30.38,30.23,8,1,6,0.00
2013-12-1,67.2,60.3,55.1,62.2,58.1,55.0,98,92,82,30.22,30.00,2,0,3,0.00
2013-12-2,65.9,57.4,51.1,59.0,55.3,51.0,99,93,76,30.00,29.82,4,0,4,0.00
2013-12-3,72.2,58.1,49.2,63.0,55.7,48.8,100,92,69,29.98,29.89,3,0,1,0.00
2013-12-4,78.0,64.5,58.4,69.0,62.6,57.8,99,94,70,30.10,29.96,4,0,0,0.00
2013-12-5,81.6,67.5,57.6,71.2,64.0,57.0,100,90,64,30.18,30.07,5,0,3,0.00
2013-12-6,79.7,70.2,62.3,72.5,67.4,61.9,100,91,75,30.17,30.09,5,0,7,0.00
2013-12-7,81.4,69.4,64.7,72.0,67.1,64.0,100,93,69,30.22,30.13,5,0,1,0.00
2013-12-8,68.0,65.1,62.8,66.2,64.4,62.0,99,98,92,30.27,30.15,2,0,5,0.00
2013-12-9,80.9,69.5,60.6,72.8,66.9,60.0,100,92,71,30.19,30.07,2,0,4,0.00
2013-12-10,80.0,69.2,53.8,70.6,66.3,49.0,99,91,68,30.25,30.03,7,0,4,0.23
2013-12-11,65.5,58.4,52.4,62.0,55.3,49.0,95,89,83,30.29,30.21,5,0,2,0.00
2013-12-12,61.6,55.9,52.1,52.0,46.0,37.0,83,70,41,30.38,30.24,6,0,2,0.00
2013-12-13,64.5,53.6,46.6,59.0,50.9,45.0,98,90,75,30.32,30.14,6,0,1,0.00
2013-12-14,76.0,66.1,54.3,70.2,64.3,54.0,100,94,81,30.14,29.89,5,0,6,0.61
2013-12-15,66.1,60.8,48.2,66.0,59.5,46.0,99,95,84,30.16,29.84,2,0,3,0.71
2013-12-16,55.0,45.5,39.5,49.0,42.7,38.0,98,90,73,30.25,30.14,1,0,0,0.00
2013-12-17,64.2,49.5,39.1,51.0,43.4,38.8,99,83,45,30.29,30.16,1,0,3,0.00
2013-12-18,62.3,47.8,40.4,47.0,40.9,29.0,99,82,30,30.30,30.19,5,0,0,0.00
2013-12-19,66.4,53.4,39.1,58.9,50.5,38.7,100,91,74,30.32,30.21,6,0,4,0.00
2013-12-20,71.6,55.9,48.1,64.0,54.1,47.8,100,94,71,30.22,30.13,2,0,0,0.00
2013-12-21,79.3,66.7,55.8,71.0,63.9,55.5,100,92,73,30.16,30.03,11,1,9,0.00
2013-12-22,81.7,73.0,67.8,73.0,70.1,67.0,99,91,70,30.14,30.05,5,1,7,0.00
2013-12-23,81.4,71.1,66.3,72.0,68.9,64.0,100,93,71,30.15,30.04,5,0,2,0.00
2013-12-24,65.2,55.4,44.3,64.0,48.8,38.0,95,80,44,30.30,30.10,3,0,3,0.00
2013-12-25,64.2,51.6,42.5,58.0,48.4,39.0,97,89,79,30.30,30.23,5,0,5,0.00
2013-12-26,59.0,55.8,53.0,57.0,53.2,50.0,97,91,81,30.28,30.17,2,0,3,0.00
2013-12-27,64.4,59.0,55.3,59.8,56.5,54.0,95,91,84,30.33,30.21,4,0,3,0.00
2013-12-28,69.1,64.3,59.9,67.1,62.5,56.0,98,94,88,30.28,30.00,6,0,3,0.00
2013-12-29,73.2,69.9,58.2,71.0,68.2,58.0,99,94,91,30.00,29.88,6,0,6,0.00
2013-12-30,64.7,54.1,48.3,58.0,50.9,47.5,99,90,58,30.20,30.00,2,0,1,0.00
2013-12-31,63.5,56.4,52.3,53.2,52.2,50.0,98,86,64,30.33,30.19,1,0,3,0.01
2014-1-1,60.6,57.3,54.9,60.0,56.0,52.0,99,95,89,30.31,30.09,2,0,1,1.02
2014-1-2,64.1,60.4,54.3,64.0,60.1,50.0,100,99,84,30.07,29.75,5,0,10,1.42